20050424,000007,809840,32.906986,-122.161502,14.153,33.104,1.036,1.738
20050424,000037,809870,32.907015,-122.161873,14.148,33.104,1.049,1.766
20050424,000107,809900,32.907016,-122.162235,14.155,33.099,1.030,1.724
20050424,000137,809930,32.906988,-122.162598,14.146,33.105,1.069,1.809
20050424,000207,809960,32.907006,-122.162953,14.144,33.106,1.023,1.711
20050424,000238,809991,32.906988,-122.163263,14.143,33.106,1.023,1.712
20050424,000307,810020,32.906976,-122.163522,14.138,33.108,1.043,1.754
20050424,000337,810050,32.906920,-122.163765,14.138,33.106,1.089,1.855
20050424,000407,810080,32.906893,-122.164027,14.137,33.106,1.069,1.812
20050424,000437,810110,32.906888,-122.164320,14.134,33.107,1.069,1.812
20050424,000507,810140,32.906860,-122.164652,14.136,33.101,1.102,1.882
20050424,000538,810171,32.906865,-122.164978,14.136,33.103,1.108,1.895
20050424,000607,810200,32.906846,-122.165285,14.138,33.099,1.135,1.950
20050424,000637,810230,32.906833,-122.165577,14.135,33.101,1.128,1.932
20050424,000707,810260,32.906810,-122.165898,14.139,33.096,1.141,1.959
20050424,000737,810290,32.906813,-122.166263,14.134,33.100,1.154,1.987
20050424,000807,810320,32.906801,-122.166630,14.133,33.101,1.148,1.970
20050424,000837,810350,32.906793,-122.166970,14.134,33.101,1.128,1.926
20050424,000907,810380,32.906756,-122.167255,14.132,33.101,1.154,1.984
20050424,000937,810410,32.906708,-122.167555,14.131,33.102,1.154,1.985
20050424,001007,810440,32.906705,-122.167877,14.129,33.104,1.174,2.030
20050424,001038,810471,32.906668,-122.168193,14.129,33.101,1.161,2.002
20050424,001107,810500,32.906658,-122.168512,14.129,33.105,1.148,1.974
20050424,001138,810531,32.906673,-122.168838,14.127,33.103,1.168,2.019
20050424,001207,810560,32.906696,-122.169152,14.126,33.102,1.148,1.976
20050424,001237,810590,32.906656,-122.169465,14.126,33.100,1.154,1.992
20050424,001307,810620,32.906651,-122.169760,14.118,33.108,1.181,2.052
20050424,001337,810650,32.906620,-122.170083,14.117,33.108,1.174,2.039
20050424,001407,810680,32.906588,-122.170443,14.117,33.106,1.174,2.040
20050424,001437,810710,32.906601,-122.170760,14.112,33.109,1.154,1.997
20050424,001508,810741,32.906615,-122.171092,14.109,33.110,1.154,1.998
20050424,001537,810770,32.906588,-122.171368,14.108,33.109,1.181,2.059
20050424,001607,810800,32.906578,-122.171653,14.106,33.108,1.148,1.986
20050424,001637,810830,32.906580,-122.172075,14.104,33.110,1.174,2.047
20050424,001707,810860,32.906576,-122.172475,14.106,33.104,1.161,2.018
20050424,001737,810890,32.906553,-122.172847,14.104,33.106,1.161,2.020
20050424,001807,810920,32.906555,-122.173237,14.105,33.106,1.187,2.082
20050424,001837,810950,32.906573,-122.173662,14.105,33.105,1.227,2.176
20050424,001907,810980,32.906595,-122.174112,14.107,33.100,1.227,2.176
20050424,001937,811010,32.906596,-122.174590,14.114,33.095,1.220,2.161
20050424,002007,811040,32.906625,-122.175070,14.108,33.100,1.233,2.190
20050424,002037,811070,32.906660,-122.175558,14.109,33.098,1.247,2.222
20050424,002108,811101,32.906648,-122.176052,14.107,33.102,1.293,2.331
20050424,002137,811130,32.906561,-122.176543,14.102,33.106,1.293,2.332
20050424,002208,811161,32.906410,-122.176908,14.105,33.103,1.313,2.384
20050424,002237,811190,32.906226,-122.177202,14.098,33.110,1.346,2.465
20050424,002307,811220,32.905946,-122.177555,14.095,33.110,1.359,2.496
20050424,002337,811250,32.905675,-122.178137,14.091,33.112,1.366,2.525
20050424,002407,811280,32.905333,-122.178815,14.080,33.119,1.359,2.532
20050424,002437,811310,32.904986,-122.179558,14.075,33.124,1.366,2.555
20050424,002507,811340,32.904595,-122.180323,14.064,33.127,1.339,2.487
20050424,002538,811371,32.904070,-122.181392,14.062,33.126,1.405,2.669
20050424,002607,811400,32.903435,-122.182673,14.056,33.128,1.459,2.845
20050424,002637,811430,32.902761,-122.184050,14.048,33.128,1.525,3.079
20050424,002707,811460,32.902018,-122.185523,14.043,33.129,1.565,3.243
20050424,002737,811490,32.901228,-122.187107,14.027,33.137,1.572,3.598
20050424,002807,811520,32.900420,-122.188743,14.020,33.137,1.579,3.860
20050424,002837,811550,32.899625,-122.190370,14.008,33.141,1.746,4.038
20050424,002907,811580,32.898823,-122.192013,13.987,33.152,1.719,3.834
20050424,002937,811610,32.898023,-122.193635,13.983,33.148,1.719,3.982
20050424,003007,811640,32.897221,-122.195263,13.967,33.151,1.565,3.695
20050424,003037,811670,32.896431,-122.196898,13.948,33.160,1.505,4.064
20050424,003107,811700,32.895618,-122.198532,13.946,33.152,1.465,3.567
20050424,003137,811730,32.894796,-122.200162,13.928,33.159,1.519,3.843
20050424,003207,811760,32.894000,-122.201808,13.914,33.165,1.619,4.124
20050424,003238,811791,32.893201,-122.203443,13.906,33.158,1.585,4.215
20050424,003307,811821,32.892411,-122.205085,13.881,33.170,1.519,3.990
20050424,003337,811850,32.891601,-122.206700,13.873,33.167,1.472,3.608
20050424,003407,811880,32.890813,-122.208332,13.842,33.179,1.519,3.402
20050424,003438,811911,32.890008,-122.209957,13.838,33.170,1.545,3.454
20050424,003508,811941,32.889211,-122.211583,13.813,33.179,1.552,3.359
20050424,003538,811971,32.888408,-122.213202,13.794,33.182,1.525,3.156
20050424,003608,812001,32.887610,-122.214815,13.779,33.182,1.525,2.964
20050424,003637,812030,32.886808,-122.216417,13.774,33.174,1.592,3.117
20050424,003708,812061,32.886003,-122.218023,13.747,33.181,1.652,3.470
20050424,003738,812091,32.885215,-122.219647,13.737,33.175,1.753,3.708
20050424,003807,812120,32.884408,-122.221243,13.728,33.171,1.766,3.612
20050424,003837,812150,32.883595,-122.222860,13.720,33.169,1.914,4.053
20050424,003907,812180,32.882786,-122.224460,13.713,33.159,2.029,4.443
20050424,003937,812210,32.881966,-122.226068,13.705,33.156,2.076,4.694
20050424,004007,812240,32.881156,-122.227680,13.695,33.152,2.056,4.814
20050424,004037,812270,32.880325,-122.229275,13.695,33.142,2.063,4.843
20050424,004107,812300,32.879505,-122.230878,13.701,33.129,2.036,5.244
20050424,004137,812330,32.878670,-122.232487,13.715,33.112,1.995,5.558
20050424,004207,812360,32.877845,-122.234105,13.740,33.084,1.901,5.328
20050424,004237,812390,32.876946,-122.235735,13.765,33.060,1.840,4.264
20050424,004307,812420,32.876108,-122.237338,13.789,33.044,1.860,4.392
20050424,004337,812450,32.875258,-122.238945,13.810,33.033,1.840,4.256
20050424,004407,812480,32.874415,-122.240560,13.805,33.047,1.793,3.806
20050424,004438,812511,32.873551,-122.242163,13.797,33.066,1.679,3.566
20050424,004507,812540,32.872676,-122.243762,13.774,33.095,1.599,3.299
20050424,004538,812571,32.871743,-122.245415,13.758,33.117,1.579,3.165
20050424,004607,812600,32.870876,-122.246973,13.758,33.120,1.559,3.056
20050424,004637,812630,32.869961,-122.248580,13.758,33.119,1.539,2.987
20050424,004707,812660,32.869030,-122.250175,13.760,33.113,1.579,3.099
20050424,004737,812690,32.868090,-122.251782,13.773,33.103,1.572,3.111
20050424,004808,812721,32.867123,-122.253432,13.778,33.098,1.719,3.565
20050424,004837,812750,32.866200,-122.254967,13.784,33.094,1.766,3.654
20050424,004908,812781,32.865250,-122.256558,13.794,33.087,1.773,3.677
20050424,004938,812811,32.864273,-122.258148,13.805,33.081,1.665,3.279
20050424,005008,812841,32.863296,-122.259740,13.815,33.076,1.646,3.197
20050424,005038,812871,32.862338,-122.261340,13.826,33.071,1.692,3.311
20050424,005108,812901,32.861385,-122.262947,13.842,33.066,1.686,3.287
20050424,005137,812930,32.860430,-122.264547,13.855,33.067,1.665,3.231
20050424,005208,812961,32.859415,-122.266223,13.879,33.057,1.599,3.051
20050424,005237,812990,32.858481,-122.267790,13.912,33.041,1.565,2.965
20050424,005308,813021,32.857466,-122.269450,13.949,33.021,1.519,2.852
20050424,005338,813051,32.856516,-122.270988,13.983,33.008,1.459,2.689
20050424,005408,813082,32.855520,-122.272633,14.000,33.011,1.386,2.513
20050424,005438,813111,32.854548,-122.274237,14.020,33.013,1.372,2.486
20050424,005507,813140,32.853600,-122.275783,14.055,33.002,1.346,2.407
20050424,005537,813171,32.852638,-122.277400,14.070,33.007,1.306,2.304
20050424,005608,813201,32.851625,-122.279062,14.093,33.008,1.220,2.147
20050424,005638,813231,32.850655,-122.280670,14.109,33.012,1.141,1.919
20050424,005707,813260,32.849711,-122.282232,14.122,33.018,1.141,1.911
20050424,005738,813291,32.848726,-122.283830,14.142,33.018,1.082,1.768
20050424,005808,813321,32.847728,-122.285490,14.163,33.018,1.004,1.603
20050424,005838,813351,32.846768,-122.287087,14.177,33.025,0.971,1.537
20050424,005908,813381,32.845816,-122.288683,14.193,33.026,0.964,1.518
20050424,005938,813411,32.844858,-122.290277,14.213,33.024,0.932,1.444
20050424,010008,813441,32.843916,-122.291818,14.231,33.022,0.893,1.363
20050424,010037,813470,32.842991,-122.293362,14.250,33.020,0.880,1.331
20050424,010108,813501,32.842003,-122.295008,14.271,33.017,0.886,1.325
20050424,010138,813531,32.841041,-122.296607,14.275,33.028,0.873,1.296
20050424,010208,813561,32.840106,-122.298150,14.291,33.030,0.880,1.302
20050424,010238,813591,32.839071,-122.299765,14.296,33.039,0.886,1.302
20050424,010308,813621,32.838158,-122.301365,14.298,33.051,0.886,1.294
20050424,010338,813651,32.837211,-122.302958,14.299,33.060,0.886,1.286
20050424,010408,813681,32.836298,-122.304513,14.299,33.070,0.900,1.317
20050424,010438,813711,32.835318,-122.306143,14.300,33.075,0.932,1.379
20050424,010508,813741,32.834393,-122.307670,14.304,33.075,0.932,1.367
20050424,010538,813771,32.833415,-122.309327,14.310,33.076,0.925,1.347
20050424,010608,813801,32.832458,-122.310918,14.316,33.077,0.945,1.376
20050424,010639,813832,32.831510,-122.312530,14.321,33.078,0.952,1.382
20050424,010708,813861,32.830566,-122.314108,14.323,33.080,0.952,1.380
20050424,010738,813891,32.829633,-122.315707,14.327,33.080,0.971,1.415
20050424,010808,813921,32.828683,-122.317295,14.333,33.080,0.971,1.414
20050424,010838,813951,32.827745,-122.318892,14.333,33.083,0.971,1.414
20050424,010909,813982,32.826805,-122.320480,14.333,33.085,0.977,1.426
20050424,010938,814011,32.825850,-122.322067,14.334,33.089,0.977,1.425
20050424,011009,814042,32.824928,-122.323677,14.336,33.089,0.977,1.423
20050424,011039,814072,32.823996,-122.325283,14.341,33.088,0.977,1.423
20050424,011108,814101,32.823051,-122.326893,14.345,33.086,1.004,1.470
20050424,011138,814131,32.822115,-122.328502,14.351,33.084,0.991,1.446
20050424,011209,814162,32.821191,-122.330100,14.359,33.079,0.964,1.398
20050424,011238,814191,32.820253,-122.331713,14.366,33.077,0.971,1.411
20050424,011308,814221,32.819320,-122.333293,14.369,33.076,0.952,1.374
20050424,011338,814251,32.818413,-122.334825,14.372,33.078,0.945,1.361
20050424,011408,814281,32.817453,-122.336493,14.377,33.077,0.952,1.374
20050424,011438,814311,32.816533,-122.338053,14.380,33.078,0.958,1.386
20050424,011508,814341,32.815605,-122.339673,14.384,33.081,0.971,1.411
20050424,011538,814371,32.814688,-122.341268,14.386,33.082,0.932,1.341
20050424,011608,814401,32.813756,-122.342873,14.390,33.081,0.932,1.344
20050424,011639,814432,32.812831,-122.344478,14.397,33.080,0.919,1.324
20050424,011709,814462,32.811913,-122.346083,14.405,33.076,0.906,1.305
20050424,011738,814491,32.810983,-122.347675,14.409,33.076,0.886,1.275
20050424,011808,814521,32.810060,-122.349288,14.418,33.072,0.900,1.313
20050424,011839,814552,32.809121,-122.350895,14.421,33.074,0.900,1.327
20050424,011908,814581,32.808201,-122.352512,14.427,33.073,0.886,1.306
20050424,011939,814612,32.807280,-122.354127,14.430,33.074,0.880,1.295
20050424,012008,814641,32.806373,-122.355752,14.436,33.075,0.860,1.269
20050424,012039,814672,32.805453,-122.357360,14.440,33.074,0.880,1.314
20050424,012108,814701,32.804543,-122.358982,14.442,33.076,0.906,1.370
20050424,012138,814731,32.803618,-122.360610,14.444,33.080,0.873,1.301
20050424,012209,814762,32.802695,-122.362237,14.445,33.082,0.854,1.243
20050424,012238,814791,32.801781,-122.363867,14.444,33.087,0.880,1.283
20050424,012309,814822,32.800871,-122.365482,14.441,33.093,0.848,1.224
20050424,012338,814851,32.799976,-122.367090,14.435,33.097,0.860,1.244
20050424,012409,814882,32.799063,-122.368693,14.427,33.107,0.893,1.301
20050424,012439,814912,32.798158,-122.370295,14.423,33.110,0.867,1.250
20050424,012508,814941,32.797273,-122.371897,14.417,33.115,0.860,1.236
20050424,012538,814971,32.796366,-122.373485,14.416,33.112,0.848,1.215
20050424,012608,815001,32.795470,-122.375082,14.413,33.114,0.860,1.240
20050424,012638,815031,32.794565,-122.376677,14.411,33.115,0.860,1.237
20050424,012709,815062,32.793650,-122.378265,14.413,33.111,0.848,1.212
20050424,012738,815091,32.792740,-122.379860,14.410,33.110,0.860,1.234
20050424,012808,815121,32.791841,-122.381432,14.415,33.104,0.835,1.188
20050424,012838,815151,32.790940,-122.383003,14.419,33.099,0.867,1.245
20050424,012909,815182,32.790035,-122.384572,14.421,33.097,0.867,1.245
20050424,012938,815211,32.789130,-122.386128,14.425,33.093,0.860,1.233
20050424,013008,815241,32.788231,-122.387697,14.425,33.094,0.815,1.154
20050424,013038,815271,32.787315,-122.389238,14.427,33.092,0.815,1.154
20050424,013108,815301,32.786431,-122.390803,14.429,33.094,0.802,1.132
20050424,013138,815331,32.785546,-122.392370,14.435,33.090,0.789,1.111
20050424,013208,815361,32.784671,-122.393922,14.444,33.083,0.789,1.112
20050424,013238,815391,32.783783,-122.395470,14.451,33.078,0.828,1.181
20050424,013309,815422,32.782896,-122.397028,14.456,33.079,0.809,1.147
20050424,013339,815452,32.782015,-122.398583,14.460,33.078,0.848,1.216
20050424,013408,815481,32.781118,-122.400137,14.457,33.085,0.822,1.170
20050424,013438,815511,32.780240,-122.401703,14.456,33.090,0.822,1.170
20050424,013508,815541,32.779373,-122.403235,14.454,33.094,0.822,1.171
20050424,013539,815572,32.778505,-122.404778,14.456,33.095,0.802,1.139
20050424,013609,815602,32.777643,-122.406323,14.456,33.097,0.802,1.140
20050424,013638,815631,32.776781,-122.407863,14.458,33.096,0.809,1.155
20050424,013708,815661,32.775900,-122.409387,14.460,33.094,0.841,1.217
20050424,013738,815691,32.775021,-122.410902,14.458,33.095,0.841,1.223
20050424,013808,815721,32.774140,-122.412385,14.458,33.099,0.867,1.276
20050424,013838,815751,32.773250,-122.413857,14.457,33.099,0.867,1.288
20050424,013908,815782,32.772346,-122.415333,14.460,33.098,0.893,1.354
20050424,013939,815812,32.771451,-122.416821,14.464,33.095,0.900,1.400
20050424,014008,815841,32.770543,-122.418290,14.468,33.091,0.893,1.441
20050424,014039,815872,32.769651,-122.419766,14.467,33.094,0.867,1.433
20050424,014109,815902,32.768760,-122.421241,14.465,33.097,0.809,1.325
20050424,014138,815931,32.767870,-122.422726,14.464,33.100,0.776,1.284
20050424,014208,815961,32.766990,-122.424203,14.465,33.100,0.712,1.179
20050424,014238,815991,32.766093,-122.425683,14.464,33.101,0.661,1.069
20050424,014308,816021,32.765180,-122.427161,14.458,33.106,0.571,0.878
20050424,014339,816052,32.764290,-122.428670,14.458,33.107,0.502,0.684
20050424,014408,816081,32.763381,-122.430165,14.458,33.108,0.464,0.637
20050424,014438,816111,32.762485,-122.431660,14.458,33.108,0.433,0.591
20050424,014508,816141,32.761583,-122.433168,14.464,33.102,0.401,0.526
20050424,014538,816171,32.760678,-122.434688,14.466,33.098,0.389,0.499
20050424,014608,816201,32.759831,-122.436145,14.464,33.094,0.383,0.481
20050424,014638,816231,32.758918,-122.437713,14.465,33.091,0.370,0.468
20050424,014708,816261,32.758023,-122.439220,14.466,33.087,0.376,0.486
20050424,014738,816291,32.757153,-122.440750,14.466,33.080,0.407,0.533
20050424,014808,816321,32.756266,-122.442268,14.466,33.077,0.389,0.503
20050424,014838,816351,32.755370,-122.443791,14.458,33.078,0.383,0.486
20050424,014909,816382,32.754493,-122.445326,14.453,33.082,0.383,0.480
20050424,014939,816412,32.753591,-122.446863,14.451,33.076,0.389,0.484
20050424,015008,816441,32.752710,-122.448413,14.445,33.075,0.370,0.458
20050424,015038,816471,32.751828,-122.449945,14.444,33.070,0.376,0.466
20050424,015108,816501,32.750941,-122.451485,14.445,33.062,0.383,0.474
20050424,015139,816532,32.750081,-122.453023,14.446,33.055,0.370,0.457
20050424,015209,816562,32.749226,-122.454561,14.446,33.050,0.401,0.499
20050424,015238,816591,32.748365,-122.456096,14.450,33.042,0.414,0.517
20050424,015309,816622,32.747498,-122.457636,14.452,33.036,0.401,0.500
20050424,015339,816652,32.746641,-122.459178,14.451,33.033,0.389,0.485
20050424,015408,816681,32.745795,-122.460716,14.438,33.043,0.407,0.521
20050424,015438,816711,32.744945,-122.462261,14.420,33.057,0.414,0.549
20050424,015508,816741,32.744080,-122.463816,14.416,33.059,0.426,0.589
20050424,015538,816771,32.743221,-122.465411,14.406,33.062,0.395,0.558
20050424,015608,816801,32.742351,-122.467003,14.401,33.061,0.395,0.572
20050424,015638,816831,32.741478,-122.468601,14.400,33.057,0.414,0.606
20050424,015708,816861,32.740611,-122.470201,14.395,33.053,0.401,0.585
20050424,015738,816891,32.739736,-122.471786,14.389,33.055,0.395,0.573
20050424,015808,816921,32.738873,-122.473401,14.385,33.054,0.389,0.559
20050424,015839,816952,32.738005,-122.475003,14.387,33.048,0.395,0.563
20050424,015909,816982,32.737131,-122.476591,14.387,33.046,0.383,0.539
20050424,015938,817011,32.736291,-122.478188,14.387,33.041,0.407,0.576
20050424,020009,817042,32.735455,-122.479765,14.389,33.041,0.414,0.586
20050424,020039,817072,32.734630,-122.481341,14.389,33.039,0.433,0.614
20050424,020108,817101,32.733903,-122.482985,14.390,33.034,0.445,0.634
20050424,020138,817132,32.733160,-122.484641,14.394,33.033,0.470,0.673
20050424,020208,817161,32.732420,-122.486278,14.394,33.034,0.552,0.803
20050424,020238,817191,32.731670,-122.487921,14.388,33.038,0.578,0.824
20050424,020308,817221,32.730938,-122.489566,14.385,33.042,0.597,0.798
20050424,020339,817252,32.730193,-122.491211,14.382,33.046,0.597,0.839
20050424,020408,817281,32.729470,-122.492863,14.384,33.046,0.610,0.888
20050424,020438,817311,32.728730,-122.494506,14.391,33.038,0.591,0.862
20050424,020508,817341,32.728006,-122.496140,14.402,33.031,0.578,0.839
20050424,020539,817372,32.727286,-122.497783,14.421,33.017,0.584,0.848
20050424,020608,817401,32.726566,-122.499405,14.436,33.008,0.578,0.833
20050424,020638,817431,32.725843,-122.501033,14.457,32.996,0.571,0.821
20050424,020708,817461,32.725120,-122.502655,14.474,32.987,0.552,0.781
20050424,020739,817492,32.724418,-122.504285,14.494,32.984,0.533,0.740
20050424,020809,817522,32.723700,-122.505901,14.499,32.992,0.508,0.693
20050424,020838,817551,32.722971,-122.507513,14.514,32.993,0.483,0.654
20050424,020908,817581,32.722255,-122.509128,14.522,32.998,0.464,0.636
20050424,020938,817611,32.721535,-122.510743,14.525,33.011,0.458,0.634
20050424,021009,817642,32.720823,-122.512345,14.530,33.018,0.433,0.576
20050424,021038,817671,32.720106,-122.513936,14.535,33.024,0.426,0.576
20050424,021108,817701,32.719376,-122.515538,14.539,33.032,0.420,0.570
20050424,021139,817732,32.718653,-122.517138,14.540,33.041,0.433,0.587
20050424,021209,817762,32.717941,-122.518746,14.535,33.051,0.458,0.624
20050424,021238,817791,32.717218,-122.520328,14.529,33.063,0.470,0.639
20050424,021308,817821,32.716505,-122.521913,14.527,33.070,0.470,0.627
20050424,021338,817851,32.715783,-122.523493,14.525,33.077,0.483,0.614
20050424,021408,817881,32.715076,-122.525091,14.522,33.083,0.495,0.628
20050424,021438,817911,32.714351,-122.526660,14.521,33.085,0.502,0.635
20050424,021509,817942,32.713661,-122.528251,14.510,33.093,0.514,0.649
20050424,021539,817972,32.712941,-122.529823,14.504,33.101,0.514,0.648
20050424,021608,818001,32.712228,-122.531396,14.502,33.098,0.495,0.630
20050424,021638,818031,32.711505,-122.532983,14.489,33.108,0.502,0.656
20050424,021709,818062,32.710795,-122.534576,14.488,33.104,0.477,0.625
20050424,021738,818091,32.710068,-122.536158,14.482,33.104,0.483,0.624
20050424,021809,818122,32.709343,-122.537748,14.482,33.100,0.483,0.609
20050424,021838,818151,32.708630,-122.539341,14.479,33.098,0.483,0.615
20050424,021908,818181,32.707901,-122.540915,14.475,33.093,0.483,0.609
20050424,021938,818211,32.707191,-122.542510,14.475,33.090,0.502,0.625
20050424,022008,818241,32.706458,-122.544091,14.476,33.084,0.527,0.663
20050424,022038,818271,32.705746,-122.545678,14.478,33.077,0.565,0.734
20050424,022109,818302,32.705026,-122.547270,14.477,33.074,0.552,0.721
20050424,022138,818331,32.704303,-122.548866,14.477,33.069,0.584,0.765
20050424,022208,818361,32.703581,-122.550465,14.479,33.065,0.571,0.745
20050424,022239,818392,32.702861,-122.552066,14.481,33.061,0.571,0.745
20050424,022308,818421,32.702141,-122.553656,14.482,33.063,0.565,0.732
20050424,022338,818451,32.701415,-122.555246,14.484,33.058,0.565,0.731
20050424,022408,818482,32.700695,-122.556845,14.482,33.060,0.559,0.712
20050424,022438,818511,32.699975,-122.558435,14.484,33.059,0.552,0.696
20050424,022508,818541,32.699265,-122.560033,14.487,33.052,0.552,0.699
20050424,022539,818572,32.698540,-122.561633,14.493,33.045,0.546,0.686
20050424,022608,818601,32.697808,-122.563220,14.499,33.042,0.552,0.697
20050424,022639,818632,32.697081,-122.564813,14.505,33.038,0.559,0.707
20050424,022708,818661,32.696356,-122.566405,14.511,33.034,0.533,0.669
20050424,022738,818691,32.695631,-122.568015,14.516,33.033,0.559,0.704
20050424,022808,818721,32.694913,-122.569616,14.518,33.036,0.565,0.712
20050424,022839,818752,32.694186,-122.571193,14.520,33.037,0.565,0.709
20050424,022909,818782,32.693478,-122.572773,14.520,33.037,0.565,0.706
20050424,022939,818812,32.692753,-122.574351,14.523,33.039,0.552,0.686
20050424,023009,818842,32.692013,-122.575926,14.523,33.039,0.559,0.694
20050424,023038,818871,32.691278,-122.577506,14.518,33.034,0.565,0.703
20050424,023109,818902,32.690543,-122.579086,14.517,33.040,0.559,0.691
20050424,023138,818931,32.689811,-122.580670,14.520,33.042,0.559,0.691
20050424,023208,818961,32.689095,-122.582256,14.514,33.049,0.546,0.670
20050424,023238,818991,32.688341,-122.583820,14.512,33.050,0.533,0.652
20050424,023309,819022,32.687605,-122.585405,14.512,33.046,0.508,0.615
20050424,023338,819051,32.686883,-122.586986,14.512,33.026,0.489,0.589
20050424,023409,819082,32.686140,-122.588560,14.517,33.028,0.483,0.579
20050424,023439,819112,32.685413,-122.590131,14.520,33.042,0.483,0.578
20050424,023508,819141,32.684673,-122.591710,14.522,33.047,0.477,0.568
20050424,023538,819171,32.683928,-122.593285,14.522,33.046,0.464,0.550
20050424,023608,819201,32.683198,-122.594885,14.517,33.030,0.464,0.550
20050424,023638,819231,32.682455,-122.596463,14.518,33.053,0.464,0.549
20050424,023709,819262,32.681711,-122.598048,14.519,33.051,0.464,0.548
20050424,023739,819292,32.680933,-122.599691,14.519,33.051,0.464,0.548
20050424,023809,819322,32.680210,-122.601235,14.520,33.048,0.439,0.514
20050424,023838,819351,32.679451,-122.602833,14.518,33.049,0.433,0.506
20050424,023908,819381,32.678695,-122.604428,14.518,33.048,0.464,0.546
20050424,023939,819412,32.677945,-122.606025,14.516,33.048,0.470,0.554
20050424,024009,819442,32.677168,-122.607681,14.515,33.050,0.489,0.579
20050424,024038,819471,32.676440,-122.609225,14.514,33.048,0.495,0.587
20050424,024108,819501,32.675680,-122.610833,14.510,33.049,0.489,0.578
20050424,024139,819532,32.674896,-122.612491,14.510,33.049,0.477,0.561
20050424,024209,819562,32.674151,-122.614025,14.502,33.052,0.477,0.561
20050424,024239,819592,32.673370,-122.615675,14.494,33.056,0.470,0.552
20050424,024309,819622,32.672633,-122.617205,14.491,33.058,0.470,0.552
20050424,024339,819652,32.671881,-122.618788,14.487,33.056,0.470,0.551
20050424,024409,819682,32.671105,-122.620421,14.485,33.053,0.458,0.534
20050424,024439,819712,32.670338,-122.621996,14.487,33.047,0.470,0.551
20050424,024509,819742,32.669580,-122.623583,14.488,33.041,0.451,0.525
20050424,024539,819772,32.668830,-122.625123,14.491,33.038,0.445,0.517
20050424,024609,819802,32.668046,-122.626770,14.495,33.031,0.458,0.533